This is the latest recevied weather packets stored in our database for station/object KG5WBN. If no packets are shown the sender has not sent any weather packets the latest 10 day(s).
| Time | Temp. | Humidity | Pressure | Rain* | Wind** | Luminosity | Snow |
|---|---|---|---|---|---|---|---|
| 1787489176 | 27.78° C | 92% | 1015.6 hPa | 0 mm | - | 34 W/m² | - |
| 1787488872 | 27.78° C | 93% | 1015.2 hPa | 0 mm | - | 31 W/m² | - |
| 1787488568 | 27.78° C | 95% | 1015.6 hPa | 0 mm | - | 25 W/m² | - |
| 1787488264 | 27.78° C | 96% | 1015.2 hPa | 0 mm | - | 24 W/m² | - |
| 1787487961 | 27.78° C | 97% | 1015.2 hPa | 0 mm | - | 22 W/m² | - |
| 1787487657 | 27.22° C | 97% | 1015.2 hPa | 0 mm | - | 20 W/m² | - |
| 1787487352 | 27.22° C | 98% | 1014.9 hPa | 0 mm | - | 13 W/m² | - |
| 1787487050 | 27.22° C | 98% | 1015.2 hPa | 0 mm | - | 14 W/m² | - |
| 1787486748 | 27.22° C | 98% | 1014.9 hPa | 0 mm | - | 14 W/m² | - |
| 1787486443 | 27.22° C | 98% | 1014.9 hPa | 0 mm | - | 13 W/m² | - |
| 1787486138 | 27.22° C | 99% | 1014.6 hPa | 0 mm | - | 9 W/m² | - |
| 1787485833 | 27.22° C | 99% | 1014.9 hPa | 0 mm | - | 8 W/m² | - |
| 1787485529 | 27.22° C | 99% | 1014.6 hPa | 0 mm | - | 6 W/m² | - |
| 1787485224 | 27.22° C | 99% | 1014.6 hPa | 0 mm | - | 4 W/m² | - |
| 1787484919 | 27.22° C | 99% | 1014.2 hPa | 0 mm | - | 2 W/m² | - |
| 1787484616 | 27.22° C | 99% | 1014.6 hPa | 0 mm | - | 0 W/m² | - |
| 1787484312 | 27.22° C | 99% | 1014.6 hPa | 0 mm | - | 0 W/m² | - |
| 1787484008 | 27.22° C | 99% | 1014.2 hPa | 0 mm | - | 0 W/m² | - |
| 1787483704 | 27.22° C | 99% | 1014.2 hPa | 0 mm | - | 0 W/m² | - |
| 1787483401 | 27.22° C | 99% | 1014.2 hPa | 0 mm | - | 0 W/m² | - |
| 1787483097 | 27.22° C | 99% | 1014.2 hPa | 0 mm | - | 0 W/m² | - |
| 1787482797 | 27.22° C | 98% | 1014.2 hPa | 0 mm | - | 0 W/m² | - |
| 1787482493 | 27.22° C | 98% | 1014.2 hPa | 0 mm | - | 0 W/m² | - |
| 1787482190 | 27.22° C | 98% | 1014.2 hPa | 0 mm | - | 0 W/m² | - |
| 1787481889 | 27.22° C | 98% | 1013.9 hPa | 0 mm | - | 0 W/m² | - |
* Rain latest hour (hover to see other rain measurements)
** Current wind speed in m/s (hover to see current wind gust speed)